Accueil
METAR-TAF:

METAR-TAF

Aéroports :

Turin, Italie

latitude: 45-05-20N, longitude: 007-36-20E, altitude: 288 m

Observation

Le bulletin a été fait il y a 2 heures et 38 minutes, à 15:50 UTC
Vent 6 kt de sud/sud-ouest
Température 2°C
Humidité 80%
Pression 1010 hPa
Visibilité: 7000 m

METAR: LIMA 161550Z 20006KT 7000 NSC 02/M01 Q1010

Heure: 19:28 (18:28 UTC)


TAF: absent

Observations et prévisions météorologiques de plus de 4000 aéroports (messages METAR et TAF).

Les stations disponibles sont représentées par des disques jaunes et rouges sur la carte.

Passer la souris dessus pour voir le nom de la station.

Cliquer dessus pour voir les observations et prévisions météorologiques.

Pour changer de carte: cliquez sur les boutons verts avec une croix noire pour zoomer, sur le bouton vert avec un tiret pour effectuer un zoom arrière, ou sur les flèches vertes pour les cartes adjacentes.


METAR-TAF: